• In Russia
  • List of Countries
  • For 7 days
  • Water Temperature
  • Satellite Maps
  • Weather Map
  • Weather Widgets
  • user-avatar
    Login

    Hourly Weather Townsville

    Today, 24 September, Sunday

    Time Temperature Precipitation Wind Pressure Humidity
    00:00 +21°C° 0 mm 2 mps 755 mmHg 95%
    01:00 +21°C° 0 mm 2 mps 755 mmHg 95%
    02:00 +21°C° 0 mm 2 mps 755 mmHg 95%
    03:00 +21°C° 0 mm 2 mps 755 mmHg 94%
    04:00 +21°C° 0 mm 2 mps 755 mmHg 94%
    05:00 +21°C° 0 mm 2 mps 755 mmHg 91%
    06:00 +21°C° 0 mm 2 mps 755 mmHg 89%
    07:00 +23°C° 0 mm 2 mps 756 mmHg 87%
    08:00 +25°C° 0 mm 2 mps 756 mmHg 74%
    09:00 +27°C° 0 mm 3 mps 756 mmHg 61%
    10:00 +29°C° 0 mm 3 mps 756 mmHg 48%
    11:00 +30°C° 0 mm 3 mps 755 mmHg 43%
    12:00 +32°C° 0 mm 4 mps 754 mmHg 38%
    13:00 +33°C° 0 mm 4 mps 754 mmHg 33%
    14:00 +32°C° 0 mm 4 mps 754 mmHg 36%
    15:00 +30°C° 0 mm 4 mps 753 mmHg 38%
    16:00 +29°C° 0 mm 4 mps 753 mmHg 40%
    17:00 +27°C° 0 mm 3 mps 753 mmHg 52%
    18:00 +25°C° 0 mm 2 mps 753 mmHg 64%
    19:00 +23°C° 0 mm 2 mps 754 mmHg 76%
    20:00 +21°C° 0 mm 2 mps 754 mmHg 80%
    21:00 +21°C° 0 mm 2 mps 755 mmHg 84%
    22:00 +21°C° 0 mm 1 mps 755 mmHg 88%
    23:00 +21°C° 0 mm 1 mps 755 mmHg 89%

    Tomorrow, 25 September, Monday

    Time Temperature Precipitation Wind Pressure Humidity
    00:00 +20°C° 0 mm 2 mps 755 mmHg 90%
    01:00 +19°C° 0 mm 2 mps 754 mmHg 91%
    02:00 +19°C° 0 mm 2 mps 754 mmHg 92%
    03:00 +19°C° 0 mm 2 mps 754 mmHg 92%
    04:00 +19°C° 0 mm 2 mps 754 mmHg 93%
    05:00 +20°C° 0 mm 2 mps 754 mmHg 89%
    06:00 +20°C° 0 mm 2 mps 755 mmHg 86%
    07:00 +21°C° 0 mm 2 mps 755 mmHg 83%
    08:00 +24°C° 0 mm 3 mps 756 mmHg 71%
    09:00 +27°C° 0 mm 3 mps 756 mmHg 59%
    10:00 +29°C° 0 mm 3 mps 756 mmHg 48%
    11:00 +30°C° 0 mm 4 mps 755 mmHg 45%
    12:00 +30°C° 0 mm 4 mps 755 mmHg 42%
    13:00 +32°C° 0 mm 4 mps 754 mmHg 38%
    14:00 +31°C° 0 mm 3 mps 754 mmHg 40%
    15:00 +30°C° 0 mm 3 mps 753 mmHg 42%
    16:00 +29°C° 0 mm 3 mps 753 mmHg 44%
    17:00 +27°C° 0 mm 3 mps 753 mmHg 54%
    18:00 +25°C° 0 mm 2 mps 754 mmHg 65%
    19:00 +23°C° 0 mm 2 mps 754 mmHg 75%
    20:00 +21°C° 0 mm 2 mps 754 mmHg 79%
    21:00 +20°C° 0 mm 2 mps 755 mmHg 82%
    22:00 +20°C° 0 mm 2 mps 755 mmHg 86%
    23:00 +20°C° 0 mm 2 mps 755 mmHg 87%

    Day after tomorrow, 26 September, Tuesday

    Time Temperature Precipitation Wind Pressure Humidity
    00:00 +19°C° 0 mm 2 mps 755 mmHg 88%
    01:00 +19°C° 0 mm 2 mps 754 mmHg 89%
    02:00 +19°C° 0 mm 2 mps 754 mmHg 90%
    03:00 +19°C° 0 mm 2 mps 754 mmHg 91%
    04:00 +19°C° 0 mm 2 mps 754 mmHg 92%
    05:00 +20°C° 0 mm 2 mps 755 mmHg 89%
    06:00 +20°C° 0 mm 2 mps 755 mmHg 86%
    07:00 +21°C° 0 mm 2 mps 755 mmHg 83%
    08:00 +24°C° 0 mm 2 mps 756 mmHg 72%
    09:00 +27°C° 0 mm 2 mps 756 mmHg 60%
    10:00 +29°C° 0 mm 3 mps 756 mmHg 48%
    11:00 +30°C° 0 mm 3 mps 755 mmHg 44%
    12:00 +31°C° 0 mm 3 mps 755 mmHg 40%
    13:00 +33°C° 0 mm 3 mps 754 mmHg 36%
    14:00 +33°C° 0 mm 3 mps 754 mmHg 37%
    15:00 +31°C° 0 mm 3 mps 753 mmHg 38%
    16:00 +30°C° 0 mm 3 mps 753 mmHg 39%
    17:00 +28°C° 0 mm 3 mps 753 mmHg 51%
    18:00 +25°C° 0 mm 2 mps 754 mmHg 63%
    19:00 +23°C° 0 mm 2 mps 754 mmHg 74%
    20:00 +21°C° 0 mm 2 mps 754 mmHg 80%
    21:00 +21°C° 0 mm 2 mps 755 mmHg 85%
    22:00 +20°C° 0 mm 2 mps 755 mmHg 90%
    23:00 +20°C° 0 mm 2 mps 755 mmHg 92%

    27 September, Wednesday

    Time Temperature Precipitation Wind Pressure Humidity
    00:00 +20°C° 0 mm 2 mps 755 mmHg 93%
    01:00 +20°C° 0 mm 2 mps 754 mmHg 95%
    02:00 +20°C° 0 mm 2 mps 754 mmHg 95%
    03:00 +20°C° 0 mm 2 mps 754 mmHg 95%
    04:00 +21°C° 0 mm 1 mps 754 mmHg 95%
    05:00 +21°C° 0 mm 2 mps 755 mmHg 92%
    06:00 +21°C° 0 mm 2 mps 755 mmHg 89%
    07:00 +23°C° 0 mm 2 mps 756 mmHg 87%
    08:00 +25°C° 0 mm 2 mps 756 mmHg 75%
    09:00 +27°C° 0 mm 2 mps 756 mmHg 64%
    10:00 +30°C° 0 mm 3 mps 756 mmHg 53%
    11:00 +31°C° 0 mm 3 mps 756 mmHg 49%
    12:00 +31°C° 0 mm 3 mps 755 mmHg 46%
    13:00 +33°C° 0 mm 3 mps 754 mmHg 42%
    14:00 +33°C° 0 mm 3 mps 754 mmHg 44%
    15:00 +31°C° 0 mm 3 mps 753 mmHg 46%
    16:00 +30°C° 0 mm 3 mps 753 mmHg 47%
    17:00 +28°C° 0 mm 3 mps 753 mmHg 59%
    18:00 +26°C° 0 mm 2 mps 754 mmHg 71%
    19:00 +24°C° 0 mm 2 mps 754 mmHg 83%
    20:00 +24°C° 0 mm 2 mps 755 mmHg 87%
    21:00 +23°C° 0 mm 2 mps 755 mmHg 90%
    22:00 +23°C° 0 mm 2 mps 755 mmHg 94%
    23:00 +23°C° 0.1 mm 2 mps 755 mmHg 94%

    28 September, Thursday

    Time Temperature Precipitation Wind Pressure Humidity
    00:00 +23°C° 0.1 mm 2 mps 755 mmHg 94%
    01:00 +22°C° 0.1 mm 3 mps 754 mmHg 94%
    02:00 +22°C° 0.1 mm 3 mps 754 mmHg 94%
    03:00 +22°C° 0.1 mm 3 mps 754 mmHg 93%
    04:00 +22°C° 0.1 mm 3 mps 754 mmHg 93%
    05:00 +22°C° 0 mm 3 mps 755 mmHg 91%
    06:00 +22°C° 0 mm 3 mps 755 mmHg 89%
    07:00 +24°C° 0 mm 3 mps 756 mmHg 86%
    08:00 +26°C° 0 mm 3 mps 756 mmHg 76%
    09:00 +27°C° 0 mm 4 mps 756 mmHg 65%
    10:00 +29°C° 0 mm 4 mps 755 mmHg 54%
    11:00 +30°C° 0 mm 4 mps 755 mmHg 51%
    12:00 +32°C° 0 mm 4 mps 754 mmHg 47%
    13:00 +33°C° 0 mm 4 mps 753 mmHg 43%
    14:00 +32°C° 0 mm 4 mps 753 mmHg 46%
    15:00 +30°C° 0 mm 4 mps 753 mmHg 48%
    16:00 +30°C° 0 mm 4 mps 752 mmHg 51%
    17:00 +28°C° 0 mm 4 mps 753 mmHg 61%
    18:00 +26°C° 0 mm 3 mps 753 mmHg 71%
    19:00 +24°C° 0 mm 3 mps 754 mmHg 81%
    20:00 +22°C° 0 mm 3 mps 754 mmHg 85%
    21:00 +22°C° 0 mm 3 mps 754 mmHg 89%
    22:00 +21°C° 0 mm 3 mps 755 mmHg 93%
    23:00 +21°C° 0 mm 3 mps 755 mmHg 92%

    29 September, Friday

    Time Temperature Precipitation Wind Pressure Humidity
    00:00 +21°C° 0 mm 3 mps 754 mmHg 92%
    01:00 +21°C° 0 mm 3 mps 754 mmHg 92%
    02:00 +21°C° 0 mm 3 mps 754 mmHg 92%
    03:00 +21°C° 0 mm 2 mps 754 mmHg 92%
    04:00 +20°C° 0 mm 2 mps 754 mmHg 92%
    05:00 +21°C° 0 mm 2 mps 755 mmHg 90%
    06:00 +21°C° 0 mm 2 mps 755 mmHg 87%
    07:00 +23°C° 0 mm 2 mps 756 mmHg 84%
    08:00 +25°C° 0 mm 2 mps 756 mmHg 73%
    09:00 +27°C° 0 mm 3 mps 756 mmHg 62%
    10:00 +29°C° 0 mm 4 mps 756 mmHg 51%
    11:00 +30°C° 0 mm 4 mps 755 mmHg 48%
    12:00 +32°C° 0 mm 4 mps 754 mmHg 45%
    13:00 +32°C° 0 mm 4 mps 754 mmHg 43%
    14:00 +32°C° 0 mm 4 mps 754 mmHg 45%
    15:00 +30°C° 0 mm 4 mps 753 mmHg 48%
    16:00 +29°C° 0 mm 4 mps 753 mmHg 51%
    17:00 +27°C° 0 mm 3 mps 754 mmHg 60%
    18:00 +25°C° 0 mm 3 mps 754 mmHg 70%
    19:00 +24°C° 0 mm 3 mps 755 mmHg 80%
    20:00 +23°C° 0 mm 2 mps 755 mmHg 83%
    21:00 +23°C° 0 mm 2 mps 755 mmHg 86%
    22:00 +21°C° 0 mm 2 mps 756 mmHg 89%
    23:00 +21°C° 0 mm 2 mps 755 mmHg 90%
    Show more